Year,Month,Day,Hour,Minute,Value (Times are PST for temperature in C)
2016,05,02,00,00,14.10
2016,05,02,00,01,14.10
2016,05,02,00,02,14.10
2016,05,02,00,03,14.10
2016,05,02,00,04,14.10
2016,05,02,00,05,14.10
2016,05,02,00,06,14.10
2016,05,02,00,07,14.10
2016,05,02,00,08,14.10
2016,05,02,00,09,14.10
2016,05,02,00,10,14.10
2016,05,02,00,11,14.10
2016,05,02,00,12,14.10
2016,05,02,00,13,14.00
2016,05,02,00,14,13.90
2016,05,02,00,15,13.90
2016,05,02,00,16,13.80
2016,05,02,00,17,13.70
2016,05,02,00,18,13.70
2016,05,02,00,19,13.70
2016,05,02,00,20,13.60
2016,05,02,00,21,13.50
2016,05,02,00,22,13.50
2016,05,02,00,23,13.40
2016,05,02,00,24,13.40
2016,05,02,00,25,13.30
2016,05,02,00,26,13.30
2016,05,02,00,27,13.20
2016,05,02,00,28,13.20
2016,05,02,00,29,13.20
2016,05,02,00,30,13.10
2016,05,02,00,31,13.10
2016,05,02,00,32,13.10
2016,05,02,00,33,13.10
2016,05,02,00,34,13.10
2016,05,02,00,35,13.10
2016,05,02,00,36,13.20
2016,05,02,00,37,13.20
2016,05,02,00,38,13.30
2016,05,02,00,39,13.30
2016,05,02,00,40,13.40
2016,05,02,00,41,13.50
2016,05,02,00,42,13.50
2016,05,02,00,43,13.60
2016,05,02,00,44,13.70
2016,05,02,00,45,13.70
2016,05,02,00,46,13.70
2016,05,02,00,47,13.70
2016,05,02,00,48,13.70
2016,05,02,00,49,13.60
2016,05,02,00,50,13.50
2016,05,02,00,51,13.50
2016,05,02,00,52,13.40
2016,05,02,00,53,13.30
2016,05,02,00,54,13.20
2016,05,02,00,55,13.10
2016,05,02,00,56,13.00
2016,05,02,00,57,13.00
2016,05,02,00,58,12.90
2016,05,02,00,59,12.80
2016,05,02,01,00,12.80
2016,05,02,01,01,12.80
2016,05,02,01,02,12.80
2016,05,02,01,03,12.80
2016,05,02,01,04,12.80
2016,05,02,01,05,12.90
2016,05,02,01,06,13.00
2016,05,02,01,07,13.10
2016,05,02,01,08,13.30
2016,05,02,01,09,13.40
2016,05,02,01,10,13.40
2016,05,02,01,11,13.40
2016,05,02,01,12,13.40
2016,05,02,01,13,13.40
2016,05,02,01,14,13.40
2016,05,02,01,15,13.30
2016,05,02,01,16,13.20
2016,05,02,01,17,13.10
2016,05,02,01,18,13.00
2016,05,02,01,19,12.90
2016,05,02,01,20,12.80
2016,05,02,01,21,12.80
2016,05,02,01,22,12.70
2016,05,02,01,23,12.70
2016,05,02,01,24,12.60
2016,05,02,01,25,12.60
2016,05,02,01,26,12.60
2016,05,02,01,27,12.60
2016,05,02,01,28,12.70
2016,05,02,01,29,12.80
2016,05,02,01,30,12.80
2016,05,02,01,31,12.90
2016,05,02,01,32,13.00
2016,05,02,01,33,13.10
2016,05,02,01,34,13.10
2016,05,02,01,35,13.20
2016,05,02,01,36,13.20
2016,05,02,01,37,13.20
2016,05,02,01,38,13.20
2016,05,02,01,39,13.20
2016,05,02,01,40,13.20
2016,05,02,01,41,13.10
2016,05,02,01,42,13.00
2016,05,02,01,43,12.90
2016,05,02,01,44,12.70
2016,05,02,01,45,12.60
2016,05,02,01,46,12.50
2016,05,02,01,47,12.40
2016,05,02,01,48,12.30
2016,05,02,01,49,12.20
2016,05,02,01,50,12.20
2016,05,02,01,51,12.10
2016,05,02,01,52,12.10
2016,05,02,01,53,12.10
2016,05,02,01,54,12.10
2016,05,02,01,55,12.10
2016,05,02,01,56,12.20
2016,05,02,01,57,12.20
2016,05,02,01,58,12.20
2016,05,02,01,59,12.40
2016,05,02,02,00,12.60
2016,05,02,02,01,13.00
2016,05,02,02,02,13.30
2016,05,02,02,03,13.70
2016,05,02,02,04,13.90
2016,05,02,02,05,14.20
2016,05,02,02,06,14.40
2016,05,02,02,07,14.70
2016,05,02,02,08,14.90
2016,05,02,02,09,15.10
2016,05,02,02,10,15.40
2016,05,02,02,11,15.60
2016,05,02,02,12,15.70
2016,05,02,02,13,15.80
2016,05,02,02,14,15.90
2016,05,02,02,15,15.90
2016,05,02,02,16,15.90
2016,05,02,02,17,15.90
2016,05,02,02,18,15.90
2016,05,02,02,19,15.90
2016,05,02,02,20,15.90
2016,05,02,02,21,15.80
2016,05,02,02,22,15.80
2016,05,02,02,23,15.80
2016,05,02,02,24,15.70
2016,05,02,02,25,15.70
2016,05,02,02,26,15.60
2016,05,02,02,27,15.60
2016,05,02,02,28,15.50
2016,05,02,02,29,15.40
2016,05,02,02,30,15.30
2016,05,02,02,31,15.20
2016,05,02,02,32,15.00
2016,05,02,02,33,15.00
2016,05,02,02,34,15.00
2016,05,02,02,35,15.00
2016,05,02,02,36,15.00
2016,05,02,02,37,15.00
2016,05,02,02,38,14.90
2016,05,02,02,39,14.80
2016,05,02,02,40,14.80
2016,05,02,02,41,14.80
2016,05,02,02,42,14.80
2016,05,02,02,43,14.80
2016,05,02,02,44,14.70
2016,05,02,02,45,14.70
2016,05,02,02,46,14.70
2016,05,02,02,47,14.80
2016,05,02,02,48,14.70
2016,05,02,02,49,14.70
2016,05,02,02,50,14.70
2016,05,02,02,51,14.70
2016,05,02,02,52,14.60
2016,05,02,02,53,14.40
2016,05,02,02,54,14.20
2016,05,02,02,55,14.00
2016,05,02,02,56,13.80
2016,05,02,02,57,13.70
2016,05,02,02,58,13.60
2016,05,02,02,59,13.50
2016,05,02,03,00,13.40
2016,05,02,03,01,13.30
2016,05,02,03,02,13.20
2016,05,02,03,03,13.20
2016,05,02,03,04,13.20
2016,05,02,03,05,13.10
2016,05,02,03,06,13.10
2016,05,02,03,07,13.10
2016,05,02,03,08,13.10
2016,05,02,03,09,13.20
2016,05,02,03,10,13.20
2016,05,02,03,11,13.20
2016,05,02,03,12,13.20
2016,05,02,03,13,13.20
2016,05,02,03,14,13.20
2016,05,02,03,15,13.20
2016,05,02,03,16,13.10
2016,05,02,03,17,13.10
2016,05,02,03,18,13.10
2016,05,02,03,19,13.10
2016,05,02,03,20,13.10
2016,05,02,03,21,13.10
2016,05,02,03,22,13.10
2016,05,02,03,23,13.10
2016,05,02,03,24,13.10
2016,05,02,03,25,13.10
2016,05,02,03,26,13.10
2016,05,02,03,27,13.10
2016,05,02,03,28,13.10
2016,05,02,03,29,13.10
2016,05,02,03,30,13.10
2016,05,02,03,31,13.00
2016,05,02,03,32,13.00
2016,05,02,03,33,12.90
2016,05,02,03,34,12.80
2016,05,02,03,35,12.80
2016,05,02,03,36,12.70
2016,05,02,03,37,12.60
2016,05,02,03,38,12.60
2016,05,02,03,39,12.60
2016,05,02,03,40,12.50
2016,05,02,03,41,12.50
2016,05,02,03,42,12.50
2016,05,02,03,43,12.50
2016,05,02,03,44,12.50
2016,05,02,03,45,12.50
2016,05,02,03,46,12.50
2016,05,02,03,47,12.50
2016,05,02,03,48,12.40
2016,05,02,03,49,12.40
2016,05,02,03,50,12.40
2016,05,02,03,51,12.30
2016,05,02,03,52,12.30
2016,05,02,03,53,12.30
2016,05,02,03,54,12.30
2016,05,02,03,55,12.20
2016,05,02,03,56,12.20
2016,05,02,03,57,12.20
2016,05,02,03,58,12.20
2016,05,02,03,59,12.20
2016,05,02,04,00,12.20
2016,05,02,04,01,12.20
2016,05,02,04,02,12.30
2016,05,02,04,03,12.30
2016,05,02,04,04,12.40
2016,05,02,04,05,12.50
2016,05,02,04,06,12.50
2016,05,02,04,07,12.60
2016,05,02,04,08,12.60
2016,05,02,04,09,12.60
2016,05,02,04,10,12.70
2016,05,02,04,11,12.80
2016,05,02,04,12,12.80
2016,05,02,04,13,12.80
2016,05,02,04,14,12.80
2016,05,02,04,15,12.80
2016,05,02,04,16,12.80
2016,05,02,04,17,12.80
2016,05,02,04,18,12.80
2016,05,02,04,19,12.90
2016,05,02,04,20,12.90
2016,05,02,04,21,13.10
2016,05,02,04,22,13.10
2016,05,02,04,23,13.20
2016,05,02,04,24,13.30
2016,05,02,04,25,13.40
2016,05,02,04,26,13.50
2016,05,02,04,27,13.60
2016,05,02,04,28,13.70
2016,05,02,04,29,13.70
2016,05,02,04,30,13.70
2016,05,02,04,31,13.60
2016,05,02,04,32,13.50
2016,05,02,04,33,13.50
2016,05,02,04,34,13.40
2016,05,02,04,35,13.30
2016,05,02,04,36,13.30
2016,05,02,04,37,13.20
2016,05,02,04,38,13.20
2016,05,02,04,39,13.20
2016,05,02,04,40,13.30
2016,05,02,04,41,13.40
2016,05,02,04,42,13.60
2016,05,02,04,43,13.80
2016,05,02,04,44,13.90
2016,05,02,04,45,14.10
2016,05,02,04,46,14.20
2016,05,02,04,47,14.30
2016,05,02,04,48,14.40
2016,05,02,04,49,14.50
2016,05,02,04,50,14.50
2016,05,02,04,51,14.60
2016,05,02,04,52,14.60
2016,05,02,04,53,14.70
2016,05,02,04,54,14.70
2016,05,02,04,55,14.70
2016,05,02,04,56,14.70
2016,05,02,04,57,14.70
2016,05,02,04,58,14.70
2016,05,02,04,59,14.60
2016,05,02,05,00,14.50
2016,05,02,05,01,14.40
2016,05,02,05,02,14.40
2016,05,02,05,03,14.30
2016,05,02,05,04,14.20
2016,05,02,05,05,14.10
2016,05,02,05,06,14.10
2016,05,02,05,07,14.00
2016,05,02,05,08,13.90
2016,05,02,05,09,13.80
2016,05,02,05,10,13.80
2016,05,02,05,11,13.70
2016,05,02,05,12,13.70
2016,05,02,05,13,13.70
2016,05,02,05,14,13.70
2016,05,02,05,15,13.70
2016,05,02,05,16,13.70
2016,05,02,05,17,13.70
2016,05,02,05,18,13.80
2016,05,02,05,19,13.80
2016,05,02,05,20,13.80
2016,05,02,05,21,13.80
2016,05,02,05,22,13.90
2016,05,02,05,23,13.90
2016,05,02,05,24,14.00
2016,05,02,05,25,14.00
2016,05,02,05,26,14.10
2016,05,02,05,27,14.10
2016,05,02,05,28,14.20
2016,05,02,05,29,14.30
2016,05,02,05,30,14.30
2016,05,02,05,31,14.40
2016,05,02,05,32,14.40
2016,05,02,05,33,14.50
2016,05,02,05,34,14.50
2016,05,02,05,35,14.50
2016,05,02,05,36,14.50
2016,05,02,05,37,14.40
2016,05,02,05,38,14.30
2016,05,02,05,39,14.20
2016,05,02,05,40,14.10
2016,05,02,05,41,14.00
2016,05,02,05,42,13.90
2016,05,02,05,43,13.90
2016,05,02,05,44,13.90
2016,05,02,05,45,14.00
2016,05,02,05,46,14.10
2016,05,02,05,47,14.10
2016,05,02,05,48,14.20
2016,05,02,05,49,14.30
2016,05,02,05,50,14.30
2016,05,02,05,51,14.30
2016,05,02,05,52,14.40
2016,05,02,05,53,14.40
2016,05,02,05,54,14.40
2016,05,02,05,55,14.50
2016,05,02,05,56,14.50
2016,05,02,05,57,14.60
2016,05,02,05,58,14.60
2016,05,02,05,59,14.60
2016,05,02,06,00,14.70
2016,05,02,06,01,14.70
2016,05,02,06,02,14.70
2016,05,02,06,03,14.70
2016,05,02,06,04,14.80
2016,05,02,06,05,14.80
2016,05,02,06,06,14.80
2016,05,02,06,07,14.80
2016,05,02,06,08,14.80
2016,05,02,06,09,14.80
2016,05,02,06,10,14.80
2016,05,02,06,11,14.80
2016,05,02,06,12,14.80
2016,05,02,06,13,14.80
2016,05,02,06,14,14.80
2016,05,02,06,15,14.80
2016,05,02,06,16,14.80
2016,05,02,06,17,14.80
2016,05,02,06,18,14.80
2016,05,02,06,19,14.80
2016,05,02,06,20,14.80
2016,05,02,06,21,14.80
2016,05,02,06,22,14.80
2016,05,02,06,23,14.80
2016,05,02,06,24,14.80
2016,05,02,06,25,14.90
2016,05,02,06,26,14.90
2016,05,02,06,27,14.90
2016,05,02,06,28,14.90
2016,05,02,06,29,15.00
2016,05,02,06,30,15.00
2016,05,02,06,31,15.00
2016,05,02,06,32,15.00
2016,05,02,06,33,15.00
2016,05,02,06,34,15.00
2016,05,02,06,35,15.00
2016,05,02,06,36,15.00
2016,05,02,06,37,15.00
2016,05,02,06,38,15.00
2016,05,02,06,39,15.00
2016,05,02,06,40,15.00
2016,05,02,06,41,15.00
2016,05,02,06,42,14.90
2016,05,02,06,43,14.90
2016,05,02,06,44,14.90
2016,05,02,06,45,14.90
2016,05,02,06,46,14.90
2016,05,02,06,47,14.90
2016,05,02,06,48,14.90
2016,05,02,06,49,14.90
2016,05,02,06,50,14.80
2016,05,02,06,51,14.80
2016,05,02,06,52,14.80
2016,05,02,06,53,14.80
2016,05,02,06,54,14.80
2016,05,02,06,55,14.80
2016,05,02,06,56,14.80
2016,05,02,06,57,14.80
2016,05,02,06,58,14.80
2016,05,02,06,59,14.80
2016,05,02,07,00,14.80
2016,05,02,07,01,14.80
2016,05,02,07,02,14.80
2016,05,02,07,03,14.80
2016,05,02,07,04,14.80
2016,05,02,07,05,14.80
2016,05,02,07,06,14.80
2016,05,02,07,07,14.80
2016,05,02,07,08,14.80
2016,05,02,07,09,14.80
2016,05,02,07,10,14.80
2016,05,02,07,11,14.90
2016,05,02,07,12,14.80
2016,05,02,07,13,14.80
2016,05,02,07,14,14.80
2016,05,02,07,15,14.80
2016,05,02,07,16,14.80
2016,05,02,07,17,14.80
2016,05,02,07,18,14.80
2016,05,02,07,19,14.90
2016,05,02,07,20,14.90
2016,05,02,07,21,15.00
2016,05,02,07,22,15.00
2016,05,02,07,23,15.00
2016,05,02,07,24,15.00
2016,05,02,07,25,15.00
2016,05,02,07,26,15.00
2016,05,02,07,27,15.00
2016,05,02,07,28,15.10
2016,05,02,07,29,15.20
2016,05,02,07,30,15.20
2016,05,02,07,31,15.20
2016,05,02,07,32,15.20
2016,05,02,07,33,15.20
2016,05,02,07,34,15.30
2016,05,02,07,35,15.30
2016,05,02,07,36,15.20
2016,05,02,07,37,15.20
2016,05,02,07,38,15.20
2016,05,02,07,39,15.20
2016,05,02,07,40,15.20
2016,05,02,07,41,15.20
2016,05,02,07,42,15.30
2016,05,02,07,43,15.30
2016,05,02,07,44,15.30
2016,05,02,07,45,15.40
2016,05,02,07,46,15.40
2016,05,02,07,47,15.50
2016,05,02,07,48,15.60
2016,05,02,07,49,15.60
2016,05,02,07,50,15.70
2016,05,02,07,51,15.80
2016,05,02,07,52,15.90
2016,05,02,07,53,16.00
2016,05,02,07,54,16.10
2016,05,02,07,55,16.20
2016,05,02,07,56,16.30
2016,05,02,07,57,16.40
2016,05,02,07,58,16.40
2016,05,02,07,59,16.50
2016,05,02,08,00,16.60
2016,05,02,08,01,16.60
2016,05,02,08,02,16.70
2016,05,02,08,03,16.70
2016,05,02,08,04,16.80
2016,05,02,08,05,16.80
2016,05,02,08,06,16.80
2016,05,02,08,07,16.90
2016,05,02,08,08,16.90
2016,05,02,08,09,16.90
2016,05,02,08,10,16.90
2016,05,02,08,11,17.00
2016,05,02,08,12,17.00
2016,05,02,08,13,17.00
2016,05,02,08,14,17.00
2016,05,02,08,15,17.00
2016,05,02,08,16,17.00
2016,05,02,08,17,17.10
2016,05,02,08,18,17.10
2016,05,02,08,19,17.10
2016,05,02,08,20,17.10
2016,05,02,08,21,17.20
2016,05,02,08,22,17.20
2016,05,02,08,23,17.30
2016,05,02,08,24,17.40
2016,05,02,08,25,17.40
2016,05,02,08,26,17.50
2016,05,02,08,27,17.60
2016,05,02,08,28,17.60
2016,05,02,08,29,17.70
2016,05,02,08,30,17.70
2016,05,02,08,31,17.80
2016,05,02,08,32,17.80
2016,05,02,08,33,17.90
2016,05,02,08,34,18.00
2016,05,02,08,35,18.00
2016,05,02,08,36,18.00
2016,05,02,08,37,18.10
2016,05,02,08,38,18.10
2016,05,02,08,39,18.10
2016,05,02,08,40,18.10
2016,05,02,08,41,18.10
2016,05,02,08,42,18.20
2016,05,02,08,43,18.20
2016,05,02,08,44,18.20
2016,05,02,08,45,18.20
2016,05,02,08,46,18.20
2016,05,02,08,47,18.30
2016,05,02,08,48,18.30
2016,05,02,08,49,18.40
2016,05,02,08,50,18.50
2016,05,02,08,51,18.50
2016,05,02,08,52,18.60
2016,05,02,08,53,18.60
2016,05,02,08,54,18.60
2016,05,02,08,55,18.60
2016,05,02,08,56,18.60
2016,05,02,08,57,18.60
2016,05,02,08,58,18.60
2016,05,02,08,59,18.60
2016,05,02,09,00,18.70
2016,05,02,09,01,18.70
2016,05,02,09,02,18.70
2016,05,02,09,03,18.70
2016,05,02,09,04,18.70
2016,05,02,09,05,18.60
2016,05,02,09,06,18.60
2016,05,02,09,07,18.70
2016,05,02,09,08,18.70
2016,05,02,09,09,18.70
2016,05,02,09,10,18.80
2016,05,02,09,11,18.80
2016,05,02,09,12,18.90
2016,05,02,09,13,19.00
2016,05,02,09,14,19.00
2016,05,02,09,15,19.10
2016,05,02,09,16,19.20
2016,05,02,09,17,19.20
2016,05,02,09,18,19.20
2016,05,02,09,19,19.20
2016,05,02,09,20,19.20
2016,05,02,09,21,19.20
2016,05,02,09,22,19.20
2016,05,02,09,23,19.10
2016,05,02,09,24,19.10
2016,05,02,09,25,19.10
2016,05,02,09,26,19.10
2016,05,02,09,27,19.00
2016,05,02,09,28,19.00
2016,05,02,09,29,19.00
2016,05,02,09,30,19.00
2016,05,02,09,31,19.00
2016,05,02,09,32,19.00
2016,05,02,09,33,19.10
2016,05,02,09,34,19.10
2016,05,02,09,35,19.20
2016,05,02,09,36,19.20
2016,05,02,09,37,19.30
2016,05,02,09,38,19.30
2016,05,02,09,39,19.40
2016,05,02,09,40,19.50
2016,05,02,09,41,19.60
2016,05,02,09,42,19.70
2016,05,02,09,43,19.80
2016,05,02,09,44,19.90
2016,05,02,09,45,19.90
2016,05,02,09,46,20.00
2016,05,02,09,47,20.10
2016,05,02,09,48,20.10
2016,05,02,09,49,20.10
2016,05,02,09,50,20.10
2016,05,02,09,51,20.10
2016,05,02,09,52,20.10
2016,05,02,09,53,20.10
2016,05,02,09,54,20.10
2016,05,02,09,55,20.10
2016,05,02,09,56,20.10
2016,05,02,09,57,20.20
2016,05,02,09,58,20.20
2016,05,02,09,59,20.20
2016,05,02,10,00,20.30
2016,05,02,10,01,20.40
2016,05,02,10,02,20.40
2016,05,02,10,03,20.40
2016,05,02,10,04,20.40
2016,05,02,10,05,20.50
2016,05,02,10,06,20.50
2016,05,02,10,07,20.60
2016,05,02,10,08,20.60
2016,05,02,10,09,20.60
2016,05,02,10,10,20.70
2016,05,02,10,11,20.70
2016,05,02,10,12,20.80
2016,05,02,10,13,20.80
2016,05,02,10,14,20.90
2016,05,02,10,15,20.90
2016,05,02,10,16,21.00
2016,05,02,10,17,21.10
2016,05,02,10,18,21.10
2016,05,02,10,19,21.20
2016,05,02,10,20,21.20
2016,05,02,10,21,21.20
2016,05,02,10,22,21.30
2016,05,02,10,23,21.30
2016,05,02,10,24,21.40
2016,05,02,10,25,21.40
2016,05,02,10,26,21.50
2016,05,02,10,27,21.60
2016,05,02,10,28,21.60
2016,05,02,10,29,21.60
2016,05,02,10,30,21.60
2016,05,02,10,31,21.60
2016,05,02,10,32,21.60
2016,05,02,10,33,21.60
2016,05,02,10,34,21.60
2016,05,02,10,35,21.70
2016,05,02,10,36,21.80
2016,05,02,10,37,21.80
2016,05,02,10,38,21.80
2016,05,02,10,39,21.90
2016,05,02,10,40,21.90
2016,05,02,10,41,22.00
2016,05,02,10,42,22.10
2016,05,02,10,43,22.10
2016,05,02,10,44,22.20
2016,05,02,10,45,22.20
2016,05,02,10,46,22.20
2016,05,02,10,47,22.30
2016,05,02,10,48,22.30
2016,05,02,10,49,22.30
2016,05,02,10,50,22.40
2016,05,02,10,51,22.40
2016,05,02,10,52,22.40
2016,05,02,10,53,22.40
2016,05,02,10,54,22.40
2016,05,02,10,55,22.50
2016,05,02,10,56,22.50
2016,05,02,10,57,22.60
2016,05,02,10,58,22.60
2016,05,02,10,59,22.60
2016,05,02,11,00,22.50
2016,05,02,11,01,22.40
2016,05,02,11,02,22.30
2016,05,02,11,03,22.20
2016,05,02,11,04,22.20
2016,05,02,11,05,22.10
2016,05,02,11,06,22.10
2016,05,02,11,07,22.00
2016,05,02,11,08,22.00
2016,05,02,11,09,22.00
2016,05,02,11,10,22.00
2016,05,02,11,11,22.10
2016,05,02,11,12,22.10
2016,05,02,11,13,22.20
2016,05,02,11,14,22.30
2016,05,02,11,15,22.40
2016,05,02,11,16,22.40
2016,05,02,11,17,22.50
2016,05,02,11,18,22.50
2016,05,02,11,19,22.50
2016,05,02,11,20,22.50
2016,05,02,11,21,22.50
2016,05,02,11,22,22.50
2016,05,02,11,23,22.50
2016,05,02,11,24,22.60
2016,05,02,11,25,22.70
2016,05,02,11,26,22.80
2016,05,02,11,27,22.80
2016,05,02,11,28,22.80
2016,05,02,11,29,22.80
2016,05,02,11,30,22.80
2016,05,02,11,31,22.80
2016,05,02,11,32,22.70
2016,05,02,11,33,22.70
2016,05,02,11,34,22.60
2016,05,02,11,35,22.60
2016,05,02,11,36,22.70
2016,05,02,11,37,22.70
2016,05,02,11,38,22.70
2016,05,02,11,39,22.80
2016,05,02,11,40,22.80
2016,05,02,11,41,22.90
2016,05,02,11,42,23.00
2016,05,02,11,43,23.10
2016,05,02,11,44,23.10
2016,05,02,11,45,23.10
2016,05,02,11,46,23.10
2016,05,02,11,47,23.10
2016,05,02,11,48,23.10
2016,05,02,11,49,23.10
2016,05,02,11,50,23.20
2016,05,02,11,51,23.20
2016,05,02,11,52,23.20
2016,05,02,11,53,23.30
2016,05,02,11,54,23.30
2016,05,02,11,55,23.30
2016,05,02,11,56,23.30
2016,05,02,11,57,23.30
2016,05,02,11,58,23.30
2016,05,02,11,59,23.30
2016,05,02,12,00,23.30
2016,05,02,12,01,23.30
2016,05,02,12,02,23.30
2016,05,02,12,03,23.30
2016,05,02,12,04,23.40
2016,05,02,12,05,23.40
2016,05,02,12,06,23.40
2016,05,02,12,07,23.40
2016,05,02,12,08,23.40
2016,05,02,12,09,23.30
2016,05,02,12,10,23.30
2016,05,02,12,11,23.30
2016,05,02,12,12,23.30
2016,05,02,12,13,23.30
2016,05,02,12,14,23.30
2016,05,02,12,15,23.30
2016,05,02,12,16,23.30
2016,05,02,12,17,23.20
2016,05,02,12,18,23.20
2016,05,02,12,19,23.20
2016,05,02,12,20,23.20
2016,05,02,12,21,23.20
2016,05,02,12,22,23.30
2016,05,02,12,23,23.30
2016,05,02,12,24,23.30
2016,05,02,12,25,23.40
2016,05,02,12,26,23.40
2016,05,02,12,27,23.50
2016,05,02,12,28,23.60
2016,05,02,12,29,23.70
2016,05,02,12,30,23.70
2016,05,02,12,31,23.70
2016,05,02,12,32,23.70
2016,05,02,12,33,23.70
2016,05,02,12,34,23.70
2016,05,02,12,35,23.70
2016,05,02,12,36,23.70
2016,05,02,12,37,23.80
2016,05,02,12,38,23.90
2016,05,02,12,39,24.00
2016,05,02,12,40,24.10
2016,05,02,12,41,24.10
2016,05,02,12,42,24.10
2016,05,02,12,43,24.10
2016,05,02,12,44,24.10
2016,05,02,12,45,24.10
2016,05,02,12,46,24.10
2016,05,02,12,47,24.20
2016,05,02,12,48,24.20
2016,05,02,12,49,24.30
2016,05,02,12,50,24.30
2016,05,02,12,51,24.30
2016,05,02,12,52,24.40
2016,05,02,12,53,24.40
2016,05,02,12,54,24.40
2016,05,02,12,55,24.50
2016,05,02,12,56,24.60
2016,05,02,12,57,24.60
2016,05,02,12,58,24.60
2016,05,02,12,59,24.70
2016,05,02,13,00,24.70
2016,05,02,13,01,24.80
2016,05,02,13,02,24.80
2016,05,02,13,03,24.90
2016,05,02,13,04,24.90
2016,05,02,13,05,25.00
2016,05,02,13,06,25.00
2016,05,02,13,07,25.10
2016,05,02,13,08,25.10
2016,05,02,13,09,25.10
2016,05,02,13,10,25.00
2016,05,02,13,11,24.90
2016,05,02,13,12,24.90
2016,05,02,13,13,24.90
2016,05,02,13,14,24.90
2016,05,02,13,15,24.90
2016,05,02,13,16,24.90
2016,05,02,13,17,24.90
2016,05,02,13,18,24.90
2016,05,02,13,19,24.90
2016,05,02,13,20,25.00
2016,05,02,13,21,25.00
2016,05,02,13,22,25.00
2016,05,02,13,23,25.00
2016,05,02,13,24,24.90
2016,05,02,13,25,25.00
2016,05,02,13,26,25.10
2016,05,02,13,27,25.10
2016,05,02,13,28,25.20
2016,05,02,13,29,25.30
2016,05,02,13,30,25.40
2016,05,02,13,31,25.40
2016,05,02,13,32,25.40
2016,05,02,13,33,25.40
2016,05,02,13,34,25.40
2016,05,02,13,35,25.40
2016,05,02,13,36,25.30
2016,05,02,13,37,25.30
2016,05,02,13,38,25.20
2016,05,02,13,39,25.30
2016,05,02,13,40,25.30
2016,05,02,13,41,25.30
2016,05,02,13,42,25.30
2016,05,02,13,43,25.30
2016,05,02,13,44,25.30
2016,05,02,13,45,25.20
2016,05,02,13,46,25.20
2016,05,02,13,47,25.20
2016,05,02,13,48,25.20
2016,05,02,13,49,25.10
2016,05,02,13,50,25.10
2016,05,02,13,51,25.00
2016,05,02,13,52,25.00
2016,05,02,13,53,24.90
2016,05,02,13,54,24.90
2016,05,02,13,55,24.80
2016,05,02,13,56,24.80
2016,05,02,13,57,24.80
2016,05,02,13,58,24.90
2016,05,02,13,59,24.90
2016,05,02,14,00,25.00
2016,05,02,14,01,25.00
2016,05,02,14,02,25.10
2016,05,02,14,03,25.20
2016,05,02,14,04,25.30
2016,05,02,14,05,25.40
2016,05,02,14,06,25.40
2016,05,02,14,07,25.40
2016,05,02,14,08,25.40
2016,05,02,14,09,25.30
2016,05,02,14,10,25.30
2016,05,02,14,11,25.20
2016,05,02,14,12,25.20
2016,05,02,14,13,25.20
2016,05,02,14,14,25.20
2016,05,02,14,15,25.20
2016,05,02,14,16,25.20
2016,05,02,14,17,25.30
2016,05,02,14,18,25.30
2016,05,02,14,19,25.40
2016,05,02,14,20,25.50
2016,05,02,14,21,25.60
2016,05,02,14,22,25.60
2016,05,02,14,23,25.70
2016,05,02,14,24,25.80
2016,05,02,14,25,25.80
2016,05,02,14,26,25.90
2016,05,02,14,27,25.90
2016,05,02,14,28,26.00
2016,05,02,14,29,26.00
2016,05,02,14,30,26.10
2016,05,02,14,31,26.20
2016,05,02,14,32,26.30
2016,05,02,14,33,26.30
2016,05,02,14,34,26.40
2016,05,02,14,35,26.40
2016,05,02,14,36,26.40
2016,05,02,14,37,26.40
2016,05,02,14,38,26.40
2016,05,02,14,39,26.30
2016,05,02,14,40,26.30
2016,05,02,14,41,26.30
2016,05,02,14,42,26.20
2016,05,02,14,43,26.20
2016,05,02,14,44,26.20
2016,05,02,14,45,26.30
2016,05,02,14,46,26.30
2016,05,02,14,47,26.30
2016,05,02,14,48,26.30
2016,05,02,14,49,26.30
2016,05,02,14,50,26.40
2016,05,02,14,51,26.40
2016,05,02,14,52,26.40
2016,05,02,14,53,26.40
2016,05,02,14,54,26.40
2016,05,02,14,55,26.40
2016,05,02,14,56,26.50
2016,05,02,14,57,26.50
2016,05,02,14,58,26.60
2016,05,02,14,59,26.70
2016,05,02,15,00,26.70
2016,05,02,15,01,26.80
2016,05,02,15,02,26.80
2016,05,02,15,03,26.80
2016,05,02,15,04,26.70
2016,05,02,15,05,26.80
2016,05,02,15,06,26.80
2016,05,02,15,07,26.80
2016,05,02,15,08,26.80
2016,05,02,15,09,26.90
2016,05,02,15,10,26.90
2016,05,02,15,11,26.90
2016,05,02,15,12,26.90
2016,05,02,15,13,26.90
2016,05,02,15,14,26.90
2016,05,02,15,15,26.80
2016,05,02,15,16,26.80
2016,05,02,15,17,26.80
2016,05,02,15,18,26.80
2016,05,02,15,19,26.80
2016,05,02,15,20,26.80
2016,05,02,15,21,26.90
2016,05,02,15,22,26.90
2016,05,02,15,23,26.90
2016,05,02,15,24,26.90
2016,05,02,15,25,26.80
2016,05,02,15,26,26.80
2016,05,02,15,27,26.80
2016,05,02,15,28,26.70
2016,05,02,15,29,26.60
2016,05,02,15,30,26.50
2016,05,02,15,31,26.40
2016,05,02,15,32,26.40
2016,05,02,15,33,26.30
2016,05,02,15,34,26.30
2016,05,02,15,35,26.30
2016,05,02,15,36,26.40
2016,05,02,15,37,26.50
2016,05,02,15,38,26.50
2016,05,02,15,39,26.60
2016,05,02,15,40,26.60
2016,05,02,15,41,26.70
2016,05,02,15,42,26.80
2016,05,02,15,43,26.90
2016,05,02,15,44,27.00
2016,05,02,15,45,27.10
2016,05,02,15,46,27.20
2016,05,02,15,47,27.30
2016,05,02,15,48,27.30
2016,05,02,15,49,27.40
2016,05,02,15,50,27.30
2016,05,02,15,51,27.30
2016,05,02,15,52,27.30
2016,05,02,15,53,27.30
2016,05,02,15,54,27.30
2016,05,02,15,55,27.30
2016,05,02,15,56,27.20
2016,05,02,15,57,27.20
2016,05,02,15,58,27.20
2016,05,02,15,59,27.10
2016,05,02,16,00,27.10
2016,05,02,16,01,27.10
2016,05,02,16,02,27.10
2016,05,02,16,03,27.20
2016,05,02,16,04,27.20
2016,05,02,16,05,27.20
2016,05,02,16,06,27.30
2016,05,02,16,07,27.30
2016,05,02,16,08,27.30
2016,05,02,16,09,27.30
2016,05,02,16,10,27.30
2016,05,02,16,11,27.30
2016,05,02,16,12,27.30
2016,05,02,16,13,27.20
2016,05,02,16,14,27.10
2016,05,02,16,15,27.10
2016,05,02,16,16,27.10
2016,05,02,16,17,27.00
2016,05,02,16,18,27.00
2016,05,02,16,19,27.00
2016,05,02,16,20,27.10
2016,05,02,16,21,27.10
2016,05,02,16,22,27.20
2016,05,02,16,23,27.20
2016,05,02,16,24,27.20
2016,05,02,16,25,27.20
2016,05,02,16,26,27.20
2016,05,02,16,27,27.10
2016,05,02,16,28,27.10
2016,05,02,16,29,27.00
2016,05,02,16,30,27.00
2016,05,02,16,31,26.90
2016,05,02,16,32,26.90
2016,05,02,16,33,26.80
2016,05,02,16,34,26.80
2016,05,02,16,35,26.70
2016,05,02,16,36,26.70
2016,05,02,16,37,26.70
2016,05,02,16,38,26.70
2016,05,02,16,39,26.70
2016,05,02,16,40,26.80
2016,05,02,16,41,26.80
2016,05,02,16,42,26.80
2016,05,02,16,43,26.90
2016,05,02,16,44,26.90
2016,05,02,16,45,26.80
2016,05,02,16,46,26.80
2016,05,02,16,47,26.80
2016,05,02,16,48,26.80
2016,05,02,16,49,26.70
2016,05,02,16,50,26.70
2016,05,02,16,51,26.70
2016,05,02,16,52,26.70
2016,05,02,16,53,26.70
2016,05,02,16,54,26.70
2016,05,02,16,55,26.70
2016,05,02,16,56,26.70
2016,05,02,16,57,26.80
2016,05,02,16,58,26.80
2016,05,02,16,59,26.80
2016,05,02,17,00,26.80
2016,05,02,17,01,26.80
2016,05,02,17,02,26.80
2016,05,02,17,03,26.80
2016,05,02,17,04,26.80
2016,05,02,17,05,26.80
2016,05,02,17,06,26.80
2016,05,02,17,07,26.80
2016,05,02,17,08,26.80
2016,05,02,17,09,26.70
2016,05,02,17,10,26.70
2016,05,02,17,11,26.70
2016,05,02,17,12,26.60
2016,05,02,17,13,26.60
2016,05,02,17,14,26.60
2016,05,02,17,15,26.60
2016,05,02,17,16,26.60
2016,05,02,17,17,26.60
2016,05,02,17,18,26.60
2016,05,02,17,19,26.70